|
X-37B - Orbit
|
Bear Branch Nature Center;
17:27:16
| Home | Info | Passes |
|
View from above orbital plane
|
View from above satellite
|
Ground track
|
The orbit data is extracted from the following two-line orbital elements,
1 37375U 11010A 12151.09943120 0.00000000 00000-0 00000-0 0 09
2 37375 41.8922 42.5837 0008151 3.7995 356.1998 15.96578464 06
| Epoch (UTC): | 30 May 2012 02:23:10 |
| Eccentricity: | 0.0008151 |
| inclination: | 41.8922° |
| perigee height: | 278 km |
| apogee height: | 289 km |
| right ascension of ascending node: | 42.5837° |
| argument of perigee: | 3.7995° |
| revolutions per day: | 15.96578464 |
| mean anomaly at epoch: | 356.1998° |
| orbit number at epoch: | 0 |
The dashed part of the orbit path shows where the satellite is in the earth's shadow,
|
|